SL-16 DEB, 22620

Orbit data source: Space-Track

SL-16 DEB, 22620 is space debris in LEO originally from a launch on Fri, 26 Mar 1993 UTC launched from the Tyuratam Missile And Space Complex (TTMTR). Debris objects in space refer to the collection of defunct objects orbiting the Earth. Examples of debris include non-operational satellites, rocket bodies, and fragments generated from explosions, collisions, or faulty payload assembly.

Loading next visibility...
Identifier
22620, 1993-016AE
Orbit
LEO
Last TLE update
16 hours ago
Origin
Manufacturer
Unknown
Mission
Spacecraft
Bus & Motor
Unknown
Mass
Unknown
Launch date (UTC)
1993-03-26 (32 years ago)
Launch vehicle
Unknown
Launch site
Tyuratam Missile And Space Complex (TTMTR)
Object type
Payload
Rocket body
Debris
Shape & HBR
Unknown
Radar Cross Section
Medium (>0.1 m² and <1 m²)

Expand to show TLE details & history

TLE from 16 hours ago
0 SL-16 DEB
1 22620U 93016AE  25181.73520281 -.00000017  00000-0  22572-4 0  9997
2 22620  71.0044 177.0699 0134400 357.9810 175.3005 13.84088640628902
Epoch: 2025-06-30T17:38Z
TLE epoch observation values (Epoch: 2025-06-30T17:38:41.522Z)
Latitude
6.16642°
Longitude
171.23563°
Altitude
1,049.372 km
Speed
7.279 km/s
True Right ascension
23h 39m 47s
True Declination
6° 07' 52"
Sunlit
Object was in daylight at epoch
Visualization orbit readout
Latitude
-45.97727°
Longitude
-28.74794°
Altitude
897.822 km
Speed
7.437 km/s
Apparent Right ascension
09h 57m 11s
Apparent Declination
-43° 06' 45"
Sunlit
Object is in daylight
Visualization observer readout
Local Sidereal Time
21:33:44
Azimuth
232.015° WSW
Elevation
-84.573°
Doppler factor
1
Orbital elements
Apogee altitude
1,045.83 km
Perigee altitude
848.92 km
Semi-major axis
7,325.512 km
Eccentricity
0.01344
Inclination
71.0044°
RAAN
177.0699°
Arg. of periapsis
357.981°
True anomaly
Unknown
Mean anomaly
175.3005°
Eccentric anomaly
Unknown
Mean motion
3.46167 °/min
Orbital period
104 mins
BSTAR
0.000022572
Loading maneuver chart data...
Loading SW <> Apogee altitude chart data...
Loading historical data...
Loading historical data...
Loading historical data...
Loading historical data...
Loading historical data...
Loading historical data...
Loading historical data...

SL-16 DEB Visibility forecast

Observer location: undefined°, undefined°

Span
Click to sort rows by Start time (UTC) header in descending order
Start Az.
Max El. time (UTC)
Max El. Az.
Max El.
End time (UTC)
End Az.
12 mins2025-07-01 10:42:22.869Z339.428° N2025-07-01 10:48:22.869Z51.721° ENE44.447°2025-07-01 10:54:22.869Z153.05° SSE
5 mins2025-07-01 12:32:22.869Z281.623° WNW2025-07-01 12:34:22.869Z260.647° W15.851°2025-07-01 12:37:22.869Z231.688° WSW
8 mins2025-07-02 00:09:22.869Z158.241° S2025-07-02 00:13:22.869Z96.28° ESE29.173°2025-07-02 00:17:22.869Z45.306° ENE
9 mins2025-07-02 01:55:22.869Z245.047° WSW2025-07-02 01:59:22.869Z302.542° NW29.155°2025-07-02 02:04:22.869Z5.011° NNE
8 mins2025-07-02 09:15:22.869Z9.671° NNE2025-07-02 09:19:22.869Z55.708° ENE22.041°2025-07-02 09:23:22.869Z98.66° ESE
|